Tracking 34305 objects as of 7-Jun-2026
HD Live streaming from Space Station
objects crossing your sky now

DELTA 1 DEB

Track DELTA 1 DEB now!
10-day predictions


NORAD ID: 7027
Int'l Code: 1973-086T
Perigee: 1,485.1 km
Apogee: 1,583.1 km
Inclination: 101.9 °
Period: 116.6 minutes
Semi major axis: 7905 km
RCS: 0.106 m2 (medium)
Launch date: November 6, 1973
Source: United States (US)
Launch site: AIR FORCE WESTERN TEST RANGE (AFWTR)

Note: This is SATELLITE DEBRIS
Your satellite tracking list
Your tracking list is empty




NASA's NSSDC Master Catalog

Two Line Element Set (TLE):
1 07027U 73086T   26157.97631774  .00000247  00000-0  22970-2 0  9990
2 07027 101.9069  50.0371 0062019  58.3751 316.8968 12.35209349362782
Source of the keplerian elements: AFSPC